Brunswick, NC

2:25 PM EDT on August 28, 2016 (GMT -0400)
Columbus County Municipal

Weather History for KCPC - October, 2011

Change the Weather History Date:

Saturday, October 8, 2011

  Actual Average (KLBT) Record (KLBT)
Temperature  
Mean Temperature 64 °F 66 °F  
Max Temperature 75 °F 78 °F 90 °F (2007)
Min Temperature 53 °F 54 °F 41 °F (2001)
Degree Days  
Heating Degree Days 1 2  
Month to date heating degree days 14  
Since 1 July heating degree days 23  
Cooling Degree Days 0 3  
Month to date cooling degree days 30  
Year to date cooling degree days 1851  
Growing Degree Days 14 (Base 50)    
Moisture  
Dew Point 52 °F    
Average Humidity 72    
Maximum Humidity 100    
Minimum Humidity 29    
Precipitation  
Precipitation 0.00 in 0.11 in 0.84 in (2003)
Month to date precipitation 1.01  
Year to date precipitation 36.20  
Sea Level Pressure  
Sea Level Pressure 30.40 in    
Wind  
Wind Speed 4 mph (NNE)    
Max Wind Speed 12 mph    
Max Gust Speed 16 mph    
Visibility 10 miles    
Events      
T = Trace of Precipitation, MM = Missing Value Source: NWS Daily Summary

Daily Weather History Graph

Daily Weather History Graph

Search for Another Location

Airport or City:

Trip Planner

Search our weather history database for the weather conditions in past years. The results will help you decide how hot, cold, wet, or windy it might be!

Date:

Astronomy

Oct. 08, 2011 Rise Set
Actual Time 7:14 AM EDT 6:49 PM EDT
Civil Twilight 6:49 AM EDT 7:15 PM EDT
Nautical Twilight 6:20 AM EDT 7:44 PM EDT
Astronomical Twilight 5:51 AM EDT 8:13 PM EDT
Moon 4:53 PM EDT (10/8) 4:07 AM EDT (10/8)
Length of Visible Light 12h 25m
Length of Day
11h 35m
Waxing Gibbous, 90% of the Moon is Illuminated
Oct 8
Waxing Gibbous
Oct 11
Full
Oct 19
Last Quarter
Oct 26
New
Nov 2
First Quarter

Hourly Weather History & Observations

Time (EDT) Temp. Dew Point Humidity Pressure Visibility Wind Dir Wind Speed Gust Speed Precip Events Conditions
12:35 AM 59.0 °F 55.4 °F 88% 30.39 in 10.0 mi NNE 3.5 mph - N/A   Clear
12:55 AM 59.0 °F 55.4 °F 88% 30.38 in 10.0 mi NE 4.6 mph - N/A   Clear
1:15 AM 59.0 °F 55.4 °F 88% 30.39 in 10.0 mi NE 5.8 mph - N/A   Clear
1:35 AM 59.0 °F 55.4 °F 88% 30.39 in 10.0 mi NE 5.8 mph - N/A   Clear
2:15 AM 59.0 °F 55.4 °F 88% 30.39 in 10.0 mi NE 6.9 mph - N/A   Clear
2:35 AM 57.2 °F 55.4 °F 94% 30.39 in 10.0 mi NE 6.9 mph - N/A   Clear
3:15 AM 57.2 °F 55.4 °F 94% 30.39 in 10.0 mi NNE 5.8 mph - N/A   Clear
3:35 AM 55.4 °F 55.4 °F 100% 30.39 in 10.0 mi NE 3.5 mph - N/A   Clear
3:55 AM 55.4 °F 55.4 °F 100% 30.39 in 10.0 mi NNE 3.5 mph - N/A   Clear
4:15 AM 55.4 °F 53.6 °F 94% 30.39 in 10.0 mi Calm Calm - N/A   Clear
4:35 AM 55.4 °F 55.4 °F 100% 30.39 in 10.0 mi NNE 4.6 mph - N/A   Clear
4:55 AM 55.4 °F 53.6 °F 94% 30.40 in 10.0 mi North 3.5 mph - N/A   Clear
5:15 AM 55.4 °F 53.6 °F 94% 30.39 in 10.0 mi Calm Calm - N/A   Clear
5:35 AM 55.4 °F 53.6 °F 94% 30.40 in 10.0 mi North 3.5 mph - N/A   Clear
5:55 AM 53.6 °F 53.6 °F 100% 30.40 in 10.0 mi NNE 3.5 mph - N/A   Clear
6:15 AM 53.6 °F 53.6 °F 100% 30.41 in 10.0 mi Calm Calm - N/A   Clear
6:35 AM 53.6 °F 53.6 °F 100% 30.41 in 10.0 mi NNE 3.5 mph - N/A   Clear
6:55 AM 53.6 °F 53.6 °F 100% 30.41 in 10.0 mi Calm Calm - N/A   Clear
7:15 AM 53.6 °F 53.6 °F 100% 30.41 in 10.0 mi NNE 3.5 mph - N/A   Clear
7:35 AM 53.6 °F 53.6 °F 100% 30.42 in 10.0 mi NNE 3.5 mph - N/A   Clear
7:55 AM 53.6 °F 53.6 °F 100% 30.43 in 10.0 mi NE 4.6 mph - N/A   Clear
8:15 AM 55.4 °F 53.6 °F 94% 30.43 in 10.0 mi NNE 4.6 mph - N/A   Clear
8:35 AM 57.2 °F 53.6 °F 88% 30.44 in 10.0 mi North 5.8 mph - N/A   Clear
8:55 AM 59.0 °F 53.6 °F 82% 30.44 in 10.0 mi NNE 5.8 mph - N/A   Clear
9:15 AM 59.0 °F 53.6 °F 82% 30.44 in 10.0 mi NE 6.9 mph - N/A   Clear
9:35 AM 60.8 °F 53.6 °F 77% 30.44 in 10.0 mi NNE 4.6 mph - N/A   Clear
9:55 AM 60.8 °F 55.4 °F 82% 30.44 in 10.0 mi NNE 3.5 mph - N/A   Clear
10:15 AM 62.6 °F 55.4 °F 77% 30.44 in 10.0 mi NNE 8.1 mph - N/A   Clear
10:35 AM 64.4 °F 55.4 °F 73% 30.44 in 10.0 mi ENE 8.1 mph - N/A   Clear
10:55 AM 64.4 °F 53.6 °F 68% 30.44 in 10.0 mi North 8.1 mph - N/A   Clear
11:15 AM 66.2 °F 55.4 °F 68% 30.44 in 10.0 mi NNE 6.9 mph - N/A   Clear
11:35 AM 68.0 °F 55.4 °F 64% 30.44 in 10.0 mi NNE 3.5 mph - N/A   Clear
12:15 PM 69.8 °F 53.6 °F 56% 30.43 in 10.0 mi NNE 4.6 mph - N/A   Clear
12:35 PM 69.8 °F 51.8 °F 53% 30.42 in 10.0 mi North 6.9 mph - N/A   Clear
1:15 PM 71.6 °F 50.0 °F 46% 30.41 in 10.0 mi NNE 8.1 mph - N/A   Clear
1:35 PM 73.4 °F 46.4 °F 38% 30.39 in 10.0 mi NNE 3.5 mph - N/A   Clear
1:55 PM 73.4 °F 46.4 °F 38% 30.39 in 10.0 mi North 4.6 mph - N/A   Clear
2:15 PM 73.4 °F 44.6 °F 36% 30.39 in 10.0 mi NNE 5.8 mph - N/A   Clear
2:35 PM 73.4 °F 42.8 °F 33% 30.38 in 10.0 mi NNE 6.9 mph - N/A   Clear
2:55 PM 73.4 °F 39.2 °F 29% 30.37 in 10.0 mi NNE 5.8 mph - N/A   Clear
3:15 PM 75.2 °F 41.0 °F 29% 30.37 in 10.0 mi NE 5.8 mph - N/A   Clear
3:55 PM 75.2 °F 41.0 °F 29% 30.36 in 10.0 mi ENE 9.2 mph - N/A   Clear
4:15 PM 73.4 °F 39.2 °F 29% 30.36 in 10.0 mi NE 11.5 mph 16.1 mph N/A   Clear
4:35 PM 73.4 °F 42.8 °F 33% 30.35 in 10.0 mi NE 5.8 mph - N/A   Clear
4:55 PM 73.4 °F 42.8 °F 33% 30.35 in 10.0 mi NNE 5.8 mph - N/A   Clear
5:15 PM 71.6 °F 44.6 °F 38% 30.35 in 10.0 mi NE 5.8 mph - N/A   Clear
5:35 PM 69.8 °F 50.0 °F 49% 30.35 in 10.0 mi Calm Calm - N/A   Clear
5:55 PM 68.0 °F 51.8 °F 56% 30.35 in 10.0 mi Calm Calm - N/A   Clear
6:15 PM 68.0 °F 51.8 °F 56% 30.36 in 10.0 mi Calm Calm - N/A   Clear
6:35 PM 66.2 °F 51.8 °F 60% 30.36 in 10.0 mi Calm Calm - N/A   Clear
6:55 PM 64.4 °F 51.8 °F 64% 30.36 in 10.0 mi Calm Calm - N/A   Clear
7:15 PM 64.4 °F 51.8 °F 64% 30.35 in 10.0 mi Calm Calm - N/A   Clear
7:35 PM 64.4 °F 53.6 °F 68% 30.35 in 10.0 mi Calm Calm - N/A   Clear
7:55 PM 62.6 °F 51.8 °F 68% 30.35 in 10.0 mi North 3.5 mph - N/A   Clear
8:15 PM 64.4 °F 50.0 °F 59% 30.35 in 10.0 mi North 3.5 mph - N/A   Clear
8:35 PM 64.4 °F 51.8 °F 64% 30.36 in 10.0 mi North 3.5 mph - N/A   Clear
8:55 PM 62.6 °F 53.6 °F 72% 30.36 in 10.0 mi NNE 4.6 mph - N/A   Clear
9:15 PM 62.6 °F 53.6 °F 72% 30.37 in 10.0 mi NE 3.5 mph - N/A   Clear
9:35 PM 64.4 °F 55.4 °F 73% 30.37 in 10.0 mi NE 4.6 mph - N/A   Mostly Cloudy
10:15 PM 64.4 °F 55.4 °F 73% 30.37 in 10.0 mi NE 6.9 mph - N/A   Overcast
10:35 PM 64.4 °F 55.4 °F 73% 30.36 in 10.0 mi NE 10.4 mph - N/A   Overcast
10:55 PM 64.4 °F 55.4 °F 73% 30.35 in 10.0 mi NE 10.4 mph - N/A   Overcast
11:15 PM 64.4 °F 55.4 °F 73% 30.35 in 10.0 mi NE 9.2 mph 16.1 mph N/A   Overcast
11:35 PM 64.4 °F 57.2 °F 77% 30.35 in 10.0 mi NE 8.1 mph 19.6 mph N/A   Overcast
11:55 PM 64.4 °F 57.2 °F 77% 30.35 in 10.0 mi NE 6.9 mph - N/A   Mostly Cloudy